N5CSC Weather Reports


time (UTC)temp
C
wind
direction
speed
KPH
gust
KPH
rain 1hr
cm
rain 24hr
cm
rain mn
cm
humidity
%
barometer
mb
20220629041522 22 325 0.0 1.6 0.00 3.48 3.48 86 1016.9
20220629040021 22 327 0.0 0.0 0.00 3.48 3.48 86 1016.7
20220629034521 22 325 0.0 4.8 0.00 3.48 3.48 86 1016.7
20220629033021 22 346 0.0 3.2 0.00 3.48 3.48 86 1016.8
20220629031520 22 342 0.0 1.6 0.00 3.48 3.48 86 1016.8
20220629030019 22 342 0.0 3.2 0.00 3.48 3.48 86 1016.8
20220629024518 22 338 0.0 4.8 0.00 3.48 3.48 86 1016.6
20220629023026 22 347 0.0 4.8 0.00 3.48 3.48 86 1016.5
20220629021525 22 349 1.6 6.4 0.00 3.48 3.48 86 1016.6
20220629020017 22 300 0.0 3.2 0.03 3.48 3.48 86 1016.8
20220629014520 22 275 0.0 0.0 0.05 3.48 3.48 86 1017.0
20220629013016 22 275 0.0 1.6 0.10 3.48 3.48 86 1017.2
20220629011515 22 275 0.0 0.0 0.13 3.48 3.48 85 1017.5
20220629010015 21 275 0.0 0.0 0.13 3.45 3.45 85 1017.5
20220629004514 21 275 0.0 3.2 0.13 3.43 3.43 85 1017.8
20220629003013 21 273 1.6 4.8 0.10 3.38 3.38 85 1017.8
20220629001513 21 317 3.2 9.7 0.08 3.35 3.35 85 1018.1
20220629000013 21 310 3.2 8.0 0.08 3.33 3.33 85 1018.1
20220628234511 21 223 1.6 8.0 0.13 3.30 3.30 84 1018.2
20220628233011 21 170 3.2 6.4 0.86 3.28 3.28 85 1018.2
20220628231510 21 271 0.0 1.6 2.44 3.28 3.28 84 1018.0
20220628230009 21 305 0.0 0.0 2.92 3.25 3.25 84 1017.6
20220628224509 21 312 1.6 4.8 3.05 3.17 3.17 83 1017.6
20220628223010 21 53 0.0 17.7 2.39 2.39 2.39 82 1018.2
20220628221505 21 13 3.2 12.9 0.81 0.81 0.81 78 1018.9
20220628220100 23 106 11.3 30.6 0.30 0.30 0.30 75 1017.7
20220628214559 26 311 3.2 6.4 0.13 0.13 0.13 70 1016.2
20220628213057 27 226 0.0 4.8 0.00 0.00 0.00 58 1016.2
20220628211558 26 180 1.6 12.9 0.00 0.00 0.00 62 1016.2
20220628210058 26 191 6.4 14.5 0.00 0.00 0.00 67 1016.1
20220628204554 28 176 9.7 17.7 0.00 0.00 0.00 61 1016.5
20220628203056 31 152 1.6 8.0 0.00 0.00 0.00 53 1016.4
20220628201552 31 91 1.6 12.9 0.00 0.00 0.00 53 1016.4
20220628200051 31 78 6.4 14.5 0.00 0.00 0.00 54 1016.5
20220628194550 31 107 6.4 16.1 0.00 0.00 0.00 53 1016.9
20220628193047 31 5 6.4 17.7 0.00 0.00 0.00 52 1016.9
20220628191546 30 49 8.0 17.7 0.00 0.00 0.00 53 1017.1
20220628190045 31 44 12.9 19.3 0.00 0.00 0.00 52 1017.2
20220628184550 31 63 11.3 25.7 0.00 0.00 0.00 51 1017.6
20220628183043 32 76 8.0 19.3 0.00 0.00 0.00 49 1017.6
20220628181535 31 49 8.0 16.1 0.00 0.00 0.00 51 1017.9
20220628180034 31 48 8.0 24.1 0.00 0.00 0.00 54 1018.3
20220628174534 30 57 4.8 20.9 0.00 0.00 0.00 57 1018.4
20220628173033 31 65 6.4 17.7 0.00 0.00 0.00 52 1018.5
20220628171531 31 94 8.0 12.9 0.00 0.00 0.00 53 1018.5
20220628170027 31 53 4.8 14.5 0.00 0.00 0.00 54 1018.6
20220628164528 30 109 4.8 17.7 0.00 0.00 0.00 55 1018.7
20220628163033 30 68 4.8 17.7 0.00 0.00 0.00 56 1018.7
20220628161534 30 122 8.0 17.7 0.00 0.00 0.00 56 1018.8
20220628160019 29 115 6.4 16.1 0.00 0.00 0.00 59 1018.7
20220628154515 28 63 6.4 16.1 0.00 0.00 0.00 62 1018.5
20220628153015 28 42 4.8 16.1 0.00 0.00 0.00 61 1018.5
20220628151512 28 65 8.0 16.1 0.00 0.00 0.00 62 1018.6
20220628150009 27 98 4.8 14.5 0.00 0.00 0.00 62 1018.6
20220628144506 27 26 11.3 16.1 0.00 0.00 0.00 62 1018.6
20220628143006 27 65 9.7 19.3 0.00 0.00 0.00 62 1018.6
20220628141504 27 83 6.4 14.5 0.00 0.00 0.00 62 1018.5
20220628140003 26 71 4.8 16.1 0.00 0.00 0.00 64 1018.3
20220628134557 26 46 9.7 17.7 0.00 0.00 0.00 65 1018.2
20220628133053 25 49 1.6 9.7 0.00 0.00 0.00 69 1018.2
20220628131549 24 59 0.0 6.4 0.00 0.00 0.00 73 1018.0
20220628130049 23 63 0.0 3.2 0.00 0.00 0.00 74 1018.0
20220628124549 23 63 0.0 3.2 0.00 0.00 0.00 75 1017.7
20220628123148 23 61 0.0 3.2 0.00 0.00 0.00 75 1017.6
20220628121648 23 61 0.0 3.2 0.00 0.00 0.00 75 1017.7
20220628120046 23 62 1.6 4.8 0.00 0.00 0.00 75 1017.4
20220628114546 23 62 0.0 0.0 0.00 0.00 0.00 74 1017.5
20220628113045 23 62 1.6 4.8 0.00 0.00 0.00 74 1017.4
20220628111543 23 62 1.6 3.2 0.00 0.00 0.00 73 1017.3
20220628110047 23 62 1.6 4.8 0.00 0.00 0.00 73 1017.4
20220628104543 23 63 1.6 4.8 0.00 0.00 0.00 72 1017.4
20220628103040 23 63 0.0 3.2 0.00 0.00 0.00 71 1017.6
20220628101539 23 51 3.2 6.4 0.00 0.00 0.00 70 1017.5
20220628100044 23 51 1.6 8.0 0.00 0.00 0.00 68 1017.5
20220628094538 24 5 1.6 4.8 0.00 0.00 0.00 68 1017.4
20220628093037 24 18 1.6 6.4 0.00 0.00 0.00 68 1017.4
20220628091545 24 23 1.6 4.8 0.00 0.00 0.00 68 1017.5
20220628090035 24 340 0.0 1.6 0.00 0.00 0.00 67 1017.5
20220628084539 24 349 1.6 3.2 0.00 0.00 0.00 67 1017.6
20220628083034 24 348 1.6 4.8 0.00 0.00 0.00 66 1017.6
20220628081532 24 11 3.2 8.0 0.00 0.00 0.00 66 1017.6
20220628080031 24 355 3.2 6.4 0.00 0.00 0.00 66 1017.6
20220628074532 24 302 1.6 6.4 0.00 0.00 0.00 66 1017.7
20220628073028 24 317 3.2 6.4 0.00 0.00 0.00 66 1017.8
20220628071528 24 309 3.2 6.4 0.00 0.00 0.00 67 1017.9
20220628070025 24 302 1.6 8.0 0.00 0.00 0.00 66 1018.1
20220628064525 24 340 1.6 4.8 0.00 0.00 0.00 67 1018.1
20220628063030 24 344 3.2 8.0 0.00 0.00 0.00 67 1018.0
20220628061522 23 333 1.6 8.0 0.00 0.00 0.00 68 1018.1
20220628060024 23 325 1.6 4.8 0.00 0.00 0.00 69 1018.2
20220628054519 23 338 1.6 4.8 0.00 0.00 0.00 69 1018.4
20220628053020 23 337 1.6 6.4 0.00 0.00 0.00 69 1018.4
20220628051517 23 348 3.2 8.0 0.00 0.00 0.00 70 1018.7
20220628050014 23 336 3.2 6.4 0.00 0.00 0.00 70 1018.8
20220628044523 23 192 0.0 1.6 0.00 0.00 0.00 71 1018.9
20220628043013 23 191 0.0 3.2 0.00 0.00 0.00 71 1019.1